When you browse on this site, cookies collect data to enhance your experience and personalize the content and advertising you see.
Visit our Privacy Policy to learn more. By continuing to use the site, you agree to this use of cookies and data.
  • In Spain
  • List of Countries
  • For 7 days
  • Water Temperature
  • Weather Map
  • Weather Widgets
  • user-avatar
    Login

    Hourly Weather Rusino

    Today, 17 August, Saturday

    Time Temperature Precipitation Wind Pressure Humidity
    00:00 +17°C° 0.2 mm 5 mps 741 mmHg 95%
    01:00 +17°C° 0.2 mm 5 mps 741 mmHg 95%
    02:00 +18°C° 0 mm 4 mps 741 mmHg 93%
    03:00 +18°C° 0 mm 4 mps 741 mmHg 94%
    04:00 +18°C° 0 mm 4 mps 741 mmHg 94%
    05:00 +18°C° 0 mm 4 mps 741 mmHg 95%
    06:00 +18°C° 0.1 mm 4 mps 741 mmHg 94%
    07:00 +19°C° 0.1 mm 4 mps 741 mmHg 93%
    08:00 +19°C° 0.1 mm 5 mps 741 mmHg 92%
    09:00 +20°C° 0.3 mm 5 mps 741 mmHg 90%
    10:00 +21°C° 0.3 mm 5 mps 741 mmHg 88%
    11:00 +21°C° 0.3 mm 5 mps 741 mmHg 86%
    12:00 +21°C° 0.9 mm 5 mps 740 mmHg 87%
    13:00 +21°C° 0.9 mm 4 mps 740 mmHg 88%
    14:00 +21°C° 0.9 mm 4 mps 740 mmHg 89%
    15:00 +20°C° 2.6 mm 4 mps 740 mmHg 91%
    16:00 +20°C° 2.6 mm 3 mps 740 mmHg 94%
    17:00 +19°C° 2.6 mm 2 mps 739 mmHg 96%
    18:00 +19°C° 1.2 mm 2 mps 739 mmHg 96%
    19:00 +18°C° 1.2 mm 2 mps 739 mmHg 96%
    20:00 +19°C° 1.2 mm 1 mps 739 mmHg 97%
    21:00 +19°C° 0.3 mm 1 mps 739 mmHg 96%
    22:00 +19°C° 0.3 mm 1 mps 739 mmHg 96%
    23:00 +19°C° 0.3 mm 1 mps 739 mmHg 96%

    Tomorrow, 18 August, Sunday

    Time Temperature Precipitation Wind Pressure Humidity
    00:00 +18°C° 0 mm 1 mps 739 mmHg 96%
    01:00 +17°C° 0 mm 2 mps 739 mmHg 97%
    02:00 +16°C° 0 mm 2 mps 739 mmHg 98%
    03:00 +16°C° 0 mm 2 mps 739 mmHg 98%
    04:00 +16°C° 0 mm 1 mps 739 mmHg 98%
    05:00 +16°C° 0 mm 1 mps 740 mmHg 98%
    06:00 +18°C° 0 mm 1 mps 740 mmHg 95%
    07:00 +18°C° 0 mm 2 mps 740 mmHg 92%
    08:00 +19°C° 0 mm 2 mps 740 mmHg 90%
    09:00 +19°C° 0 mm 2 mps 741 mmHg 87%
    10:00 +20°C° 0 mm 2 mps 741 mmHg 84%
    11:00 +21°C° 0 mm 2 mps 742 mmHg 81%
    12:00 +21°C° 0 mm 3 mps 742 mmHg 79%
    13:00 +21°C° 0 mm 3 mps 742 mmHg 78%
    14:00 +22°C° 0 mm 3 mps 742 mmHg 76%
    15:00 +21°C° 0 mm 3 mps 743 mmHg 77%
    16:00 +21°C° 0 mm 3 mps 743 mmHg 78%
    17:00 +21°C° 0 mm 3 mps 743 mmHg 79%
    18:00 +19°C° 0 mm 3 mps 744 mmHg 84%
    19:00 +18°C° 0 mm 2 mps 744 mmHg 89%
    20:00 +16°C° 0 mm 2 mps 745 mmHg 94%
    21:00 +16°C° 0 mm 2 mps 745 mmHg 94%
    22:00 +15°C° 0 mm 1 mps 745 mmHg 94%
    23:00 +15°C° 0 mm 1 mps 746 mmHg 94%

    Day after tomorrow, 19 August, Monday

    Time Temperature Precipitation Wind Pressure Humidity
    00:00 +15°C° 0 mm 1 mps 746 mmHg 94%
    01:00 +15°C° 0 mm 1 mps 746 mmHg 94%
    02:00 +14°C° 0 mm 1 mps 747 mmHg 94%
    03:00 +14°C° 0 mm 1 mps 747 mmHg 94%
    04:00 +14°C° 0 mm 1 mps 747 mmHg 94%
    05:00 +14°C° 0 mm 1 mps 747 mmHg 95%
    06:00 +16°C° 0 mm 1 mps 748 mmHg 90%
    07:00 +19°C° 0 mm 1 mps 748 mmHg 85%
    08:00 +20°C° 0 mm 1 mps 749 mmHg 80%
    09:00 +21°C° 0 mm 1 mps 749 mmHg 75%
    10:00 +23°C° 0 mm 1 mps 749 mmHg 70%
    11:00 +24°C° 0 mm 1 mps 749 mmHg 65%
    12:00 +24°C° 0 mm 1 mps 749 mmHg 62%
    13:00 +25°C° 0 mm 1 mps 749 mmHg 60%
    14:00 +25°C° 0 mm 1 mps 750 mmHg 57%
    15:00 +25°C° 0 mm 1 mps 750 mmHg 60%
    16:00 +25°C° 0 mm 1 mps 750 mmHg 64%
    17:00 +25°C° 0 mm 1 mps 750 mmHg 67%
    18:00 +23°C° 0 mm 1 mps 750 mmHg 71%
    19:00 +21°C° 0 mm 1 mps 750 mmHg 74%
    20:00 +20°C° 0 mm 1 mps 750 mmHg 78%
    21:00 +19°C° 0 mm 1 mps 750 mmHg 80%
    22:00 +19°C° 0 mm 1 mps 750 mmHg 81%
    23:00 +18°C° 0 mm 1 mps 751 mmHg 83%

    20 August, Tuesday

    Time Temperature Precipitation Wind Pressure Humidity
    00:00 +18°C° 0 mm 1 mps 751 mmHg 84%
    01:00 +18°C° 0 mm 1 mps 751 mmHg 85%
    02:00 +15°C° 0 mm 0 mps 751 mmHg 86%
    03:00 +15°C° 0 mm 0 mps 751 mmHg 87%
    04:00 +16°C° 0 mm 1 mps 751 mmHg 87%
    05:00 +16°C° 0 mm 1 mps 751 mmHg 87%
    06:00 +19°C° 0 mm 1 mps 751 mmHg 82%
    07:00 +21°C° 0 mm 1 mps 751 mmHg 78%
    08:00 +22°C° 0 mm 1 mps 751 mmHg 73%
    09:00 +24°C° 0 mm 1 mps 751 mmHg 69%
    10:00 +25°C° 0 mm 1 mps 751 mmHg 64%
    11:00 +26°C° 0 mm 1 mps 751 mmHg 60%
    12:00 +26°C° 0 mm 1 mps 751 mmHg 57%
    13:00 +25°C° 0 mm 0 mps 751 mmHg 55%
    14:00 +25°C° 0 mm 0 mps 751 mmHg 52%
    15:00 +27°C° 0 mm 1 mps 751 mmHg 56%
    16:00 +27°C° 0 mm 1 mps 750 mmHg 59%
    17:00 +26°C° 0 mm 1 mps 750 mmHg 63%
    18:00 +25°C° 0 mm 1 mps 751 mmHg 65%
    19:00 +23°C° 0 mm 1 mps 751 mmHg 68%
    20:00 +21°C° 0 mm 1 mps 751 mmHg 71%
    21:00 +21°C° 0 mm 1 mps 751 mmHg 74%
    22:00 +20°C° 0 mm 1 mps 751 mmHg 76%
    23:00 +19°C° 0 mm 1 mps 751 mmHg 78%

    21 August, Wednesday

    Time Temperature Precipitation Wind Pressure Humidity
    00:00 +19°C° 0 mm 1 mps 751 mmHg 80%
    01:00 +19°C° 0 mm 1 mps 751 mmHg 82%
    02:00 +19°C° 0 mm 1 mps 751 mmHg 84%
    03:00 +19°C° 0 mm 1 mps 751 mmHg 85%
    04:00 +18°C° 0 mm 1 mps 751 mmHg 85%
    05:00 +17°C° 0 mm 2 mps 751 mmHg 86%
    06:00 +19°C° 0 mm 2 mps 751 mmHg 82%
    07:00 +21°C° 0 mm 2 mps 751 mmHg 77%
    08:00 +23°C° 0 mm 2 mps 751 mmHg 73%
    09:00 +24°C° 0 mm 3 mps 751 mmHg 68%
    10:00 +25°C° 0 mm 3 mps 750 mmHg 64%
    11:00 +27°C° 0 mm 3 mps 750 mmHg 60%
    12:00 +27°C° 0 mm 3 mps 750 mmHg 60%
    13:00 +27°C° 0 mm 4 mps 749 mmHg 60%
    14:00 +28°C° 0 mm 4 mps 749 mmHg 60%
    15:00 +27°C° 0 mm 3 mps 749 mmHg 65%
    16:00 +27°C° 0 mm 3 mps 748 mmHg 69%
    17:00 +26°C° 0 mm 3 mps 748 mmHg 74%
    18:00 +25°C° 0 mm 3 mps 748 mmHg 80%
    19:00 +24°C° 0 mm 3 mps 748 mmHg 85%
    20:00 +21°C° 0 mm 2 mps 748 mmHg 91%
    21:00 +21°C° 0 mm 2 mps 748 mmHg 92%
    22:00 +21°C° 0 mm 2 mps 748 mmHg 92%
    23:00 +21°C° 0 mm 2 mps 748 mmHg 93%

    22 August, Thursday

    Time Temperature Precipitation Wind Pressure Humidity
    00:00 +20°C° 0 mm 2 mps 747 mmHg 93%
    01:00 +20°C° 0 mm 2 mps 747 mmHg 93%
    02:00 +21°C° 0 mm 1 mps 747 mmHg 93%
    03:00 +21°C° 0 mm 1 mps 747 mmHg 93%
    04:00 +21°C° 0 mm 1 mps 747 mmHg 94%
    05:00 +18°C° 0 mm 0 mps 746 mmHg 94%
    06:00 +22°C° 0 mm 1 mps 746 mmHg 90%
    07:00 +23°C° 0 mm 1 mps 746 mmHg 85%
    08:00 +25°C° 0 mm 2 mps 747 mmHg 81%
    09:00 +26°C° 0 mm 2 mps 747 mmHg 78%
    10:00 +27°C° 0 mm 3 mps 747 mmHg 74%
    11:00 +28°C° 0 mm 4 mps 747 mmHg 70%
    12:00 +28°C° 0 mm 4 mps 747 mmHg 68%
    13:00 +28°C° 0 mm 4 mps 747 mmHg 66%
    14:00 +29°C° 0 mm 4 mps 748 mmHg 64%
    15:00 +27°C° 0 mm 4 mps 748 mmHg 69%
    16:00 +26°C° 0 mm 5 mps 748 mmHg 74%
    17:00 +25°C° 0 mm 5 mps 748 mmHg 79%
    18:00 +22°C° 0 mm 5 mps 749 mmHg 80%
    19:00 +21°C° 0 mm 5 mps 749 mmHg 82%
    20:00 +19°C° 0 mm 4 mps 749 mmHg 84%
    21:00 +19°C° 0 mm 4 mps 750 mmHg 83%
    22:00 +18°C° 0 mm 4 mps 750 mmHg 83%
    23:00 +16°C° 0 mm 5 mps 751 mmHg 83%
    Show more